{"data":{"norad_id":62802,"epoch":"2026-05-25T02:38:47.652000Z","epoch_age_seconds":62023,"freshness":"FRESH","line1":"1 62802U 25016T   26145.11027375  .00000106  00000+0  14544-3 0  9993","line2":"2 62802  88.9714  86.1248 0016732 241.8345 118.1116 13.51012042 69285","mean_motion":13.51012042,"eccentricity":0.0016732,"inclination_deg":88.9714,"raan_deg":86.1248,"arg_perigee_deg":241.8345,"mean_anomaly_deg":118.1116,"bstar":0.00014544,"rev_number":6928,"period_min":106.58676275515,"perigee_km":1056.0775597011,"apogee_km":1080.9971106964,"semimajor_km":7446.6743351987,"source":"CELESTRAK","updated_at":"2026-05-25T13:38:03.279803Z"}}